Location: Unspecified
(42.9300°N, 71.1866°W)
Time: 13:39:42
(UTC-04:00)

CZ-3 Stage 3 - Visible Passes

Search period start: 24 May 2017 00:00
Search period end: 03 June 2017 00:00
Orbit: 405 x 34793 km, 30.8° (Epoch: 23 May)

Date Brightness Start Highest point End Pass type
(mag) Time Alt. Az. Time Alt. Az. Time Alt. Az.
24 May 9.8 01:47:01 10° WNW 02:32:42 13° WNW 03:37:26 10° WNW visible
24 May 9.1 21:16:56 10° W 22:53:52 55° WSW 04:50:39 10° WSW visible
25 May 8.1 17:33:23 10° WSW 20:59:24 60° SE 02:43:30 10° S visible
26 May 6.8 13:59:50 10° S 20:33:38 29° ESE 22:49:08 10° SE visible
27 May 9.8 01:38:08 10° WNW 02:21:55 13° WNW 03:23:15 10° WNW visible
27 May 9.2 21:07:35 10° W 22:42:53 54° WSW 04:36:34 10° WSW visible
28 May 8.1 17:24:06 10° WSW 20:35:59 59° SE 02:33:13 10° S visible
29 May 6.8 13:50:24 10° S 20:23:13 29° ESE 22:38:42 10° SE visible
30 May 9.8 01:29:25 10° WNW 02:11:08 13° WNW 03:08:50 10° WNW visible
30 May 9.3 20:58:13 10° W 22:31:53 54° WSW 04:22:28 10° WSW visible
31 May 8.1 17:14:47 10° WSW 17:46:18 70° SSE 02:22:51 10° S visible
01 Jun 6.8 13:40:57 10° S 20:12:46 28° ESE 22:24:44 11° SE visible
02 Jun 9.9 01:20:51 10° WNW 02:00:22 12° WNW 02:54:11 10° WNW visible
